O3b星座 FM3星 (O3B FM3)

导读

O3B FM3是O3B星座的第三代中地球轨道通信卫星,于2014年7月10日发射升空。该卫星主要为偏远地区提供高速互联网接入与通信服务,填补传统通信网络覆盖盲区,相比静止轨道卫星,它能提供更低延迟的连接,助力海事、航空等移动平台稳定联网,推动全球通信普惠发展,是中轨卫星互联网建设的重要实践节点。

基本信息
目录编号:
40079
目录名称:
O3B FM3
国际标识:
2014-038A
轨道中心:
EARTH
卫星名称:
O3b星座 FM3星
卫星全名:
O3b星座 FM3星 (O3B FM3)
卫星状态:
在轨 (已飞行4446 天)
发射日期:
2014-07-10 UTC
国别 :
(O3B)
星等 :
--
轨道信息
数据来源 国际轨道数据 AOE轨道数据
星历时间 2026-09-10T19:01:01+0800
16小时前
查看轨道信息
2026-09-10T05:00:00+0800
1天前
查看轨道信息
半长轴 14444.024km 14444.032km
偏心率 0.0003493 0.0003457
轨道倾角 0.049° 0.048°
近地点辐角 220.249° 218.764°
升交点赤经 353.381° 354.117°
平近点角 146.347° 175.248°
近地点 8060.841km 8060.901km
远地点 8070.933km 8070.889km
周期 287.933分钟 287.934分钟
每日圈数 5.001157 5.001153
详细信息
平衡模式:
三轴稳定
覆盖范围:
全球
运营商:
欧洲卫星公司
运营商所在国:
卢森堡
制造商(研发单位):
阿莱尼亚宇航公司
制造商所在国:
意大利
使用方式:
暂无
卫星简介
O3b卫星星座分为O3b FM卫星星座和O3b mPOWER卫星星座,前者是由阿莱尼亚宇航公司制造的第一代O3b卫星星座,后者是由波音公司制造的第二代O3b卫星星座。O3b卫星初始星座运行于赤道圆轨道,轨道高度8062公里,能够覆盖全球南北纬45°之间所有地方,在南、北纬45°~62°范围内也能提供一定的服务。该卫星仍在工作。
2D轨道图
3D轨道图
轨道高度分析图
轨道倾角分析图
轨道综合分析图
查看轨道综合分析图
与全量物体交会距离演化趋势
与全量物体交会风险概率演化趋势